Wind_Speed
18 19 18 17 16 15 14 13 14 16 16 17 15 15 14 12 12 13 8 2 13 17 34 24 18 15 17 19 6 13 6 4 3 3 2 3 2 2 3 1 7 4 6 4 4 4 6 2 9 10 8 24 36 37
18 17 17 17 16 16 13 15 17 15 15 16 15 12 11 11 12 13 10 2 9 11 22 24 19 15 17 16 22 13 9 16 11 4 5 4 4 1 6 5 2 4 6 4 8 6 7 12 17 24 25 37 40 46
17 16 17 17 16 17 16 16 15 15 14 14 14 11 10 10 10 12 12 9 16 16 23 19 15 11 9 20 9 7 10 16 12 15 3 3 2 3 2 6 6 5 6 3 6 2 10 18 22 24 39 48 48 50
16 15 14 15 16 17 15 15 15 15 14 13 13 8 9 11 11 11 11 1 8 12 6 3 4 16 13 11 10 7 11 12 14 14 4 2 3 10 4 2 2 5 7 5 2 5 1 20 23 30 40 48 48 47
16 16 15 16 17 17 16 15 15 14 13 12 11 8 8 11 13 13 6 5 9 11 6 16 15 4 9 6 4 6 7 9 11 7 3 2 7 7 5 2 2 10 6 5 5 4 7 13 30 36 39 46 50 48
15 16 17 17 14 15 15 13 12 10 9 10 8 8 8 8 12 10 2 3 4 3 5 4 9 8 7 6 6 7 7 8 6 4 5 6 10 8 3 3 6 29 35 31 3 17 18 22 28 34 34 48 47 48
17 16 17 17 15 13 11 11 12 12 10 9 8 8 8 8 10 6 4 4 3 5 4 5 4 8 10 9 8 7 7 6 5 5 4 4 7 17 3 2 13 26 27 28 26 9 5 22 14 26 34 40 47 45
15 15 15 15 14 13 13 13 13 15 12 10 11 13 10 7 3 3 3 4 2 3 5 3 4 3 11 7 9 12 7 6 3 4 7 1 6 3 3 4 9 14 20 23 27 19 4 19 15 32 47 46 49 46
13 14 15 14 14 14 12 13 15 17 15 13 11 6 7 5 5 3 6 3 3 3 6 4 4 3 6 7 7 16 11 3 4 3 3 5 2 5 3 5 7 9 11 16 23 17 17 14 37 39 31 14 45 42
14 15 15 15 16 16 14 14 14 16 13 10 8 5 3 2 6 3 2 0 1 3 4 4 6 4 7 5 5 7 7 3 3 5 5 3 7 16 20 17 10 12 10 12 17 20 21 17 28 36 27 41 43 43
12 13 14 14 14 13 12 13 12 13 9 10 8 5 8 6 3 2 3 3 5 3 6 7 10 6 8 2 2 6 0 3 2 3 5 4 4 14 32 32 24 18 11 10 13 14 14 14 25 41 40 30 38 39
10 12 14 14 14 13 10 11 12 9 9 9 10 8 4 2 2 2 2 4 5 3 8 6 9 8 6 4 3 5 3 2 3 2 3 4 1 12 14 23 29 28 21 13 14 17 17 15 9 40 44 35 38 39
11 12 13 14 14 13 12 11 10 10 10 2 3 3 3 3 2 3 3 3 3 5 2 6 5 7 4 3 4 2 2 3 4 3 4 1 8 15 22 25 28 25 29 23 18 19 21 18 28 46 46 51 51 42
13 14 14 12 12 11 12 12 10 6 2 2 3 3 3 4 5 5 5 4 6 6 9 11 4 4 0 2 2 3 4 3 3 4 4 4 8 22 27 25 27 30 30 32 24 23 26 16 33 41 54 54 50 44
16 16 17 8 11 11 10 11 6 3 1 3 4 4 6 11 7 4 1 3 4 6 7 4 3 5 2 3 4 2 3 4 4 5 3 15 20 15 14 29 27 29 26 23 27 28 29 22 39 40 45 43 37 36
19 17 7 13 15 17 11 9 3 4 3 4 6 5 11 11 9 2 5 8 3 2 4 2 1 1 3 3 4 6 4 6 2 3 12 16 20 23 15 14 18 24 29 34 31 31 27 33 39 43 40 33 33 37
17 9 18 20 17 13 10 6 4 3 4 4 5 9 14 15 15 14 9 4 3 1 2 3 4 6 4 4 5 3 9 8 14 17 14 15 18 25 21 14 17 14 10 23 30 21 32 37 41 35 38 39 41 39
17 16 22 19 15 15 9 5 3 4 6 10 7 14 20 22 20 22 17 13 6 4 3 3 7 3 4 7 7 8 14 19 21 16 10 16 19 21 20 19 18 16 15 14 9 18 27 40 41 41 35 30 37 40
23 23 23 24 20 14 4 4 5 4 10 11 17 21 20 22 27 28 25 19 16 11 5 4 6 5 8 6 11 13 13 13 15 18 17 17 18 22 21 16 15 10 7 9 17 29 25 35 43 48 49 45 42 38
21 11 8 8 11 4 4 4 5 6 6 5 10 11 10 10 13 9 14 23 19 10 7 5 6 12 11 13 11 12 10 10 14 20 21 18 22 20 16 19 9 7 10 5 23 18 31 31 29 37 42 37 35 34
10 7 8 7 8 11 5 5 6 7 7 7 12 11 8 12 15 13 12 22 12 7 6 19 21 24 22 24 23 21 19 15 13 16 20 20 19 17 9 11 4 12 10 21 17 41 46 43 38 37 35 35 37 36
5 8 9 6 4 4 7 9 7 5 5 8 9 6 7 5 3 7 21 8 8 16 17 25 28 31 32 35 35 29 27 26 24 23 17 16 18 13 9 7 7 14 23 1 12 35 41 35 34 34 33 32 28 30
7 6 4 4 4 4 6 7 6 4 3 4 5 4 3 2 7 10 3 5 7 12 17 22 28 33 37 39 37 37 31 25 23 18 12 12 14 15 16 24 30 35 36 31 29 32 34 31 28 26 28 30 30 29
9 4 3 4 8 4 4 4 5 4 4 3 2 4 2 3 7 2 3 3 9 21 17 11 6 6 7 9 12 11 14 20 17 13 15 17 18 24 30 31 31 31 30 33 29 30 28 29 28 27 27 30 27 28
4 4 4 6 5 4 3 1 2 3 3 2 2 3 3 5 2 2 2 7 20 22 19 13 14 18 20 16 15 14 13 15 19 18 19 17 19 25 27 29 32 34 29 33 37 33 33 34 29 23 24 23 24 28
4 5 6 3 2 2 3 2 2 2 3 2 3 5 4 2 3 4 4 18 18 20 22 24 20 17 17 16 17 17 20 21 22 23 20 20 24 25 24 23 23 20 17 19 23 23 22 19 21 20 17 13 22 25
4 5 7 4 4 3 4 6 6 3 3 2 3 3 3 4 4 4 15 20 18 17 26 25 28 28 34 34 31 23 20 18 17 21 16 15 17 19 19 21 21 24 21 22 22 18 14 16 19 14 15 21 21 18
7 5 5 5 5 4 2 3 2 3 3 5 5 3 3 3 2 9 9 18 17 21 23 21 21 21 19 18 25 31 32 32 29 24 24 23 20 17 17 17 19 17 21 25 23 21 19 19 15 13 15 15 15 15
7 4 4 4 5 4 4 3 0 2 5 3 1 1 2 2 4 7 13 17 21 23 22 17 16 14 13 12 10 12 14 19 20 19 20 21 18 17 16 16 15 16 15 14 14 13 12 9 12 12 11 12 15 9
4 6 4 4 1 2 1 4 7 7 5 4 4 5 4 3 10 15 11 11 12 11 14 16 20 20 18 19 17 14 9 3 11 8 12 12 13 13 14 13 13 13 11 10 7 8 11 14 10 16 12 12 11 9
2 4 3 4 2 4 4 1 5 11 4 1 2 7 7 6 11 9 9 11 12 11 9 6 6 4 2 6 12 16 17 15 12 10 13 14 12 11 11 13 11 10 11 10 5 9 11 9 10 9 10 10 12 12
1 2 3 2 4 4 3 4 4 5 15 12 7 6 6 4 4 2 9 7 8 9 13 11 11 8 10 12 13 11 12 12 14 18 18 15 13 11 6 7 14 10 11 11 7 8 10 10 10 10 9 9 5 6
3 3 2 3 5 3 3 2 3 3 2 8 11 16 10 10 7 7 10 11 10 10 10 9 15 14 11 8 6 6 6 5 5 8 10 10 7 3 7 7 7 11 7 8 9 12 9 10 8 9 10 10 14 13
Wind_Direction
326 323 323 325 327 322 319 319 322 324 325 323 319 317 320 324 320 313 221 290 316 284 289 282 324 347 339 329 333 331 5 1 1 17 5 290 112 221 80 240 143 133 142 189 170 147 246 311 155 135 189 145 146 139
338 338 340 337 332 325 327 327 320 316 318 325 321 312 319 330 325 314 277 296 332 290 279 288 292 291 270 289 317 318 1 16 22 14 17 343 346 120 145 234 219 202 165 176 167 204 190 120 114 135 135 126 131 133
344 338 335 334 331 327 328 322 317 317 318 322 325 304 312 327 328 322 296 346 356 301 310 259 266 268 265 255 260 306 10 3 355 356 299 280 338 358 2 198 197 209 164 165 57 290 140 128 131 127 133 136 137 139
336 334 333 326 328 328 329 323 320 320 320 313 325 312 318 329 326 318 300 92 13 319 278 301 336 227 236 227 250 298 316 340 349 334 307 306 342 359 331 282 186 190 130 177 233 292 140 160 146 142 134 140 138 144
332 333 335 332 332 333 328 324 320 320 323 319 322 314 318 326 328 333 283 157 351 301 304 296 320 311 219 231 243 264 282 314 342 339 342 309 332 358 301 357 34 33 345 138 221 163 139 163 148 149 140 145 148 146
344 338 335 336 341 343 342 347 351 352 350 343 335 323 321 327 334 360 25 75 295 269 296 292 320 299 230 230 229 242 260 279 302 347 320 302 336 4 314 333 25 20 6 354 264 155 137 149 153 159 159 150 151 152
346 348 351 345 343 348 353 354 350 350 343 341 336 326 322 323 328 331 268 318 347 240 274 286 254 214 212 219 227 229 221 250 281 287 202 291 321 340 318 305 328 2 341 349 3 24 128 171 175 156 143 138 144 146
353 353 355 354 351 346 345 346 347 344 328 324 325 319 299 299 34 33 17 356 358 287 272 280 282 163 196 189 177 205 218 227 250 273 301 202 297 289 269 5 4 1 346 4 356 8 83 81 168 132 142 147 144 140
345 347 347 346 348 348 339 340 342 340 343 337 339 20 68 52 348 282 322 301 199 227 305 308 305 8 181 208 193 176 198 173 232 201 257 321 233 223 217 22 5 352 331 337 340 357 26 114 126 119 110 127 134 136
337 342 343 340 338 334 334 336 342 343 348 7 13 354 3 324 314 337 354 29 245 226 241 256 282 285 350 235 209 142 188 221 184 211 195 234 249 269 267 279 308 331 330 330 336 343 357 6 181 167 184 184 156 152
336 338 342 342 341 347 341 338 343 350 2 1 352 348 346 345 2 300 292 262 190 231 222 238 247 290 322 15 8 20 273 194 203 213 175 243 259 231 251 261 264 277 299 305 293 301 318 346 145 142 139 141 152 157
330 330 333 334 337 340 341 340 341 345 321 327 324 323 325 302 290 292 236 205 225 242 177 219 214 213 297 338 62 14 349 351 271 211 204 236 322 198 221 248 266 262 267 289 273 283 291 306 227 182 185 182 185 167
328 325 327 333 330 328 323 320 322 323 329 45 282 278 240 202 5 244 224 205 238 349 356 2 164 165 212 310 95 72 297 261 272 240 223 234 197 215 221 229 243 253 252 257 265 260 269 289 169 169 162 164 171 165
330 328 323 320 327 321 318 323 315 312 8 294 256 287 219 195 238 207 267 336 5 357 346 354 16 354 217 187 244 209 196 235 263 215 243 259 280 238 235 228 235 239 241 241 245 252 259 290 175 156 163 171 166 160
329 328 316 300 341 344 346 335 305 249 282 270 264 237 230 243 282 290 164 107 37 358 4 13 1 8 303 305 187 299 241 215 230 228 265 9 355 338 267 224 230 237 236 243 241 245 259 193 158 156 161 158 155 160
333 336 338 329 320 327 322 339 269 182 250 246 242 265 300 311 283 274 321 117 74 11 354 302 13 295 257 257 240 198 225 205 139 14 15 351 346 349 330 302 246 244 241 245 245 244 217 184 178 176 161 160 161 165
339 341 320 322 319 327 327 269 210 232 250 246 252 264 270 280 279 282 307 2 62 64 259 294 221 218 225 234 244 243 240 282 316 322 315 332 334 340 343 311 305 308 278 235 239 235 197 193 175 160 156 157 157 160
335 314 312 311 311 325 311 219 236 240 247 249 260 251 255 257 260 265 259 256 258 207 230 254 326 259 229 223 214 234 264 293 296 322 341 343 333 331 340 332 308 318 311 284 227 198 194 181 157 149 138 152 158 160
320 310 286 283 286 307 275 235 219 263 247 255 257 259 253 257 264 263 252 242 221 204 216 227 246 225 221 258 282 298 330 352 341 331 326 334 335 337 332 324 305 289 253 213 176 158 142 138 146 147 164 163 157 162
318 302 295 275 256 241 257 245 224 250 261 255 254 253 236 238 272 257 234 211 199 190 211 225 227 234 242 241 294 311 313 311 321 324 322 336 335 336 326 308 289 233 149 181 190 178 158 156 177 159 161 162 155 154
302 304 286 286 211 211 263 252 242 243 267 255 278 267 266 254 236 207 173 182 181 217 224 233 243 251 249 263 270 277 283 291 291 286 297 313 317 311 295 271 215 187 173 29 195 157 153 152 150 152 149 157 159 160
267 299 295 261 232 220 253 237 243 264 255 268 284 243 261 268 279 152 173 173 209 225 231 242 251 257 256 260 267 267 269 269 268 276 279 287 291 260 178 158 158 148 168 189 93 135 135 141 143 148 154 158 161 160
303 285 250 241 231 236 261 235 231 233 258 266 279 264 239 299 343 333 202 206 240 251 263 266 261 256 257 259 261 263 258 250 257 254 263 255 222 204 167 140 127 134 130 119 116 113 123 135 144 148 150 149 149 152
302 243 246 236 210 259 227 228 236 261 271 261 267 278 315 323 329 320 275 289 298 322 326 326 277 230 205 211 217 209 209 210 215 219 185 164 165 148 148 143 139 138 132 131 134 135 132 135 141 148 158 155 155 155
257 236 218 254 242 243 248 250 248 251 273 289 281 287 348 336 300 322 356 317 334 358 19 52 108 110 112 124 130 143 158 174 173 157 136 142 142 132 122 122 129 130 134 142 152 152 148 154 157 167 169 160 156 159
248 220 198 254 240 233 341 282 255 285 291 276 263 301 318 323 339 333 348 344 351 17 44 81 80 91 97 108 113 117 125 139 139 125 123 134 136 143 136 128 127 129 144 146 141 139 143 156 162 168 161 154 162 159
253 249 213 232 303 262 274 263 259 261 262 273 311 320 336 358 360 336 347 22 30 61 84 85 88 93 96 92 92 103 113 108 111 110 126 133 130 130 138 142 139 135 136 132 137 148 151 157 160 154 136 148 156 163
246 268 197 187 228 241 258 270 288 342 353 345 337 26 15 16 338 340 19 74 88 96 97 100 92 98 101 89 97 107 107 104 107 114 113 107 103 109 122 133 132 138 137 145 151 148 155 159 151 170 162 165 175 175
232 232 123 234 216 238 219 223 278 345 328 353 14 36 63 29 19 105 96 80 80 98 96 92 96 96 102 108 134 153 123 121 125 124 123 121 121 125 115 114 115 120 130 142 138 127 130 150 173 172 166 173 179 175
241 201 159 246 268 174 91 146 140 70 52 46 107 100 83 68 115 124 111 86 83 107 105 94 92 81 67 65 72 93 115 127 195 150 160 150 124 120 136 139 138 130 133 118 158 172 173 184 182 180 175 171 155 168
235 190 218 176 155 175 172 231 215 187 212 151 110 127 128 106 131 148 126 97 104 122 126 107 89 67 26 97 79 76 75 77 96 128 121 120 107 117 144 154 138 132 151 172 168 172 161 159 171 166 182 190 197 190
221 240 144 137 150 152 166 225 274 205 187 190 168 164 145 127 104 138 174 165 153 147 148 107 114 124 116 107 87 86 92 96 91 101 102 104 105 112 117 157 177 148 154 167 151 161 177 177 185 194 202 212 206 206
148 119 135 165 143 173 223 249 274 271 193 143 184 187 174 116 105 150 127 136 131 123 127 141 134 122 115 121 128 100 89 96 107 102 113 126 143 107 90 128 134 147 163 187 192 191 173 171 202 209 215 224 214 212
Height
1506 1503 1500 1497 1494 1492 1491 1489 1487 1484 1482 1479 1476 1474 1473 1471 1468 1465 1462 1464 1465 1459 1444 1444 1442 1444 1437 1434 1430 1415 1407 1405 1406 1414 1414 1411 1411 1409 1411 1408 1421 1435 1447 1453 1451 1457 1467 1416 1420 1441 1437 1435 1443 1454
1504 1501 1498 1495 1493 1490 1488 1486 1485 1482 1480 1477 1474 1471 1471 1470 1467 1464 1461 1461 1460 1457 1446 1439 1436 1437 1441 1435 1439 1428 1424 1415 1414 1420 1420 1416 1417 1409 1418 1435 1407 1435 1426 1438 1434 1442 1416 1414 1417 1421 1425 1435 1445 1452
1503 1500 1497 1494 1491 1488 1486 1484 1482 1480 1478 1475 1472 1470 1468 1468 1466 1464 1460 1460 1456 1452 1442 1438 1435 1435 1436 1440 1441 1436 1426 1429 1427 1428 1425 1421 1421 1415 1426 1419 1412 1409 1408 1424 1425 1416 1415 1416 1421 1424 1427 1436 1446 1452
1501 1498 1495 1492 1489 1486 1484 1481 1479 1477 1475 1473 1471 1469 1467 1466 1464 1462 1459 1460 1460 1457 1447 1430 1429 1433 1436 1436 1436 1434 1434 1435 1435 1431 1427 1426 1426 1414 1418 1412 1411 1406 1408 1418 1422 1415 1416 1416 1420 1425 1431 1437 1446 1454
1500 1496 1493 1490 1487 1484 1481 1478 1476 1475 1473 1471 1469 1467 1466 1464 1462 1459 1457 1459 1459 1464 1453 1439 1429 1427 1428 1430 1432 1434 1436 1436 1438 1435 1432 1431 1423 1422 1415 1407 1412 1409 1417 1424 1430 1413 1416 1418 1421 1425 1431 1439 1445 1452
1499 1496 1492 1489 1486 1483 1480 1477 1475 1473 1472 1469 1467 1466 1465 1463 1461 1458 1458 1459 1458 1457 1456 1442 1430 1428 1427 1429 1432 1435 1437 1438 1440 1440 1437 1431 1428 1429 1425 1422 1411 1414 1410 1417 1412 1412 1415 1419 1423 1426 1431 1437 1446 1451
1499 1496 1493 1491 1487 1483 1480 1478 1475 1473 1471 1469 1467 1465 1463 1462 1461 1461 1460 1459 1457 1457 1456 1444 1431 1427 1428 1431 1434 1436 1438 1438 1440 1438 1438 1437 1433 1431 1428 1431 1412 1418 1420 1416 1414 1411 1417 1418 1423 1430 1433 1439 1447 1454
1498 1495 1491 1489 1486 1484 1481 1479 1476 1473 1470 1468 1465 1463 1461 1460 1461 1460 1459 1458 1457 1457 1455 1446 1433 1429 1430 1431 1434 1437 1438 1439 1439 1438 1435 1437 1436 1433 1435 1424 1424 1424 1420 1419 1419 1418 1420 1420 1424 1430 1429 1437 1445 1454
1497 1494 1491 1488 1486 1483 1481 1478 1476 1473 1469 1466 1463 1461 1460 1460 1460 1460 1458 1457 1457 1460 1455 1446 1439 1434 1429 1429 1431 1436 1437 1440 1439 1439 1438 1437 1433 1436 1428 1429 1428 1430 1430 1431 1425 1424 1424 1426 1430 1432 1444 1463 1447 1457
1496 1493 1490 1488 1485 1482 1480 1477 1475 1472 1469 1467 1465 1464 1463 1462 1461 1460 1458 1457 1457 1456 1455 1451 1442 1437 1432 1429 1430 1433 1434 1436 1440 1437 1438 1438 1430 1422 1422 1427 1433 1433 1431 1429 1430 1426 1428 1433 1431 1431 1434 1454 1454 1452
1494 1492 1489 1486 1483 1480 1478 1476 1474 1472 1471 1468 1467 1466 1464 1463 1462 1461 1459 1456 1453 1452 1448 1444 1441 1439 1434 1434 1432 1433 1431 1432 1438 1435 1438 1433 1424 1419 1420 1420 1429 1431 1432 1432 1431 1431 1433 1434 1439 1436 1442 1456 1444 1452
1493 1490 1488 1485 1482 1480 1478 1476 1474 1472 1472 1471 1470 1467 1465 1464 1463 1462 1455 1451 1449 1442 1440 1438 1438 1439 1438 1435 1435 1437 1437 1434 1438 1428 1432 1427 1418 1418 1420 1419 1416 1423 1427 1429 1430 1429 1430 1433 1441 1430 1430 1434 1453 1456
1491 1489 1486 1483 1481 1479 1477 1475 1473 1471 1470 1470 1470 1468 1465 1464 1464 1457 1451 1444 1441 1435 1435 1434 1435 1436 1438 1437 1437 1439 1442 1439 1428 1428 1424 1417 1415 1416 1418 1420 1420 1421 1423 1425 1427 1428 1428 1430 1434 1428 1433 1441 1447 1452
1489 1486 1484 1481 1479 1477 1475 1473 1472 1470 1470 1471 1469 1468 1463 1457 1455 1449 1447 1444 1444 1441 1438 1437 1436 1435 1436 1437 1437 1439 1438 1435 1432 1427 1423 1414 1412 1411 1412 1415 1416 1416 1417 1419 1423 1426 1426 1433 1434 1436 1432 1435 1442 1451
1486 1484 1481 1479 1477 1475 1474 1472 1471 1470 1471 1469 1466 1462 1452 1447 1445 1445 1446 1446 1446 1444 1442 1441 1441 1441 1439 1438 1435 1434 1433 1429 1422 1420 1414 1413 1412 1409 1406 1407 1410 1413 1415 1417 1422 1425 1426 1427 1428 1431 1431 1436 1443 1449
1483 1480 1479 1478 1476 1474 1472 1470 1469 1470 1470 1467 1462 1455 1450 1448 1444 1444 1444 1446 1447 1447 1447 1446 1446 1446 1444 1438 1432 1430 1427 1419 1415 1416 1415 1412 1410 1410 1408 1409 1410 1412 1413 1414 1417 1419 1420 1423 1427 1428 1431 1437 1439 1447
1481 1479 1478 1476 1474 1472 1470 1469 1469 1469 1467 1462 1454 1451 1451 1452 1449 1448 1448 1449 1449 1449 1447 1445 1444 1441 1436 1432 1429 1419 1421 1413 1413 1413 1414 1413 1414 1412 1409 1408 1407 1408 1407 1407 1409 1411 1417 1424 1431 1436 1437 1439 1442 1449
1479 1477 1474 1473 1472 1470 1468 1467 1467 1465 1460 1454 1452 1447 1447 1446 1445 1444 1444 1447 1449 1449 1449 1447 1444 1436 1429 1425 1422 1418 1417 1415 1413 1413 1413 1413 1412 1412 1410 1407 1407 1407 1406 1407 1407 1411 1418 1424 1428 1433 1440 1452 1446 1446
1476 1474 1470 1469 1470 1471 1467 1465 1465 1461 1452 1449 1443 1442 1440 1436 1432 1433 1436 1440 1443 1446 1447 1444 1439 1429 1424 1418 1415 1416 1416 1416 1414 1413 1413 1413 1413 1412 1409 1407 1406 1406 1407 1411 1411 1412 1419 1417 1425 1424 1444 1450 1445 1455
1471 1468 1466 1466 1467 1469 1465 1462 1460 1456 1449 1442 1437 1435 1432 1428 1424 1424 1425 1430 1436 1441 1441 1433 1420 1415 1414 1415 1415 1415 1416 1416 1416 1413 1412 1413 1413 1412 1410 1408 1406 1405 1407 1409 1415 1418 1416 1424 1432 1442 1445 1446 1446 1455
1466 1465 1464 1465 1464 1466 1463 1458 1454 1449 1443 1438 1432 1429 1424 1420 1417 1417 1420 1425 1430 1427 1422 1416 1414 1411 1411 1409 1409 1411 1412 1414 1415 1416 1414 1412 1413 1412 1411 1406 1405 1403 1404 1405 1413 1416 1419 1425 1435 1437 1443 1451 1458 1463
1465 1464 1462 1462 1462 1461 1458 1453 1450 1445 1441 1433 1429 1425 1420 1414 1409 1409 1412 1417 1417 1413 1409 1407 1405 1403 1404 1404 1404 1406 1407 1409 1410 1411 1411 1411 1411 1411 1409 1405 1403 1401 1403 1408 1407 1411 1414 1427 1435 1442 1449 1457 1463 1468
1463 1462 1461 1459 1459 1457 1452 1447 1446 1440 1437 1430 1426 1421 1414 1411 1410 1408 1405 1405 1403 1404 1402 1400 1397 1395 1393 1393 1396 1398 1401 1404 1406 1407 1408 1410 1408 1409 1409 1407 1405 1404 1411 1414 1405 1413 1424 1433 1440 1448 1454 1458 1463 1468
1462 1461 1458 1456 1454 1449 1446 1443 1440 1437 1433 1429 1424 1419 1414 1412 1410 1408 1406 1403 1400 1397 1391 1386 1383 1382 1382 1385 1388 1389 1391 1397 1402 1405 1406 1406 1408 1408 1408 1409 1411 1412 1414 1418 1420 1428 1434 1440 1446 1452 1458 1461 1467 1468
1462 1457 1456 1451 1447 1443 1440 1438 1436 1434 1431 1428 1425 1418 1415 1413 1410 1407 1405 1406 1399 1390 1388 1384 1385 1384 1385 1388 1389 1392 1395 1398 1401 1405 1406 1408 1409 1411 1413 1417 1419 1422 1426 1429 1435 1437 1438 1442 1449 1460 1464 1465 1466 1467
1457 1450 1449 1443 1442 1443 1438 1438 1437 1433 1431 1427 1423 1420 1418 1415 1414 1411 1410 1407 1401 1396 1392 1393 1392 1393 1393 1395 1396 1397 1400 1403 1406 1408 1412 1413 1414 1416 1418 1421 1424 1429 1434 1436 1438 1441 1447 1451 1453 1460 1464 1464 1464 1468
1452 1444 1442 1441 1440 1440 1438 1435 1434 1434 1431 1427 1424 1421 1419 1418 1418 1418 1414 1410 1407 1404 1403 1402 1403 1403 1403 1403 1403 1405 1408 1411 1412 1415 1418 1419 1420 1422 1424 1426 1430 1433 1436 1440 1443 1447 1449 1453 1458 1460 1458 1462 1467 1470
1444 1438 1438 1438 1438 1438 1437 1434 1430 1429 1428 1427 1426 1426 1425 1425 1425 1423 1419 1417 1414 1414 1412 1412 1413 1414 1415 1416 1416 1416 1416 1416 1419 1422 1424 1425 1426 1428 1430 1433 1436 1439 1441 1443 1444 1447 1450 1454 1457 1460 1462 1465 1469 1471
1435 1433 1434 1435 1434 1435 1434 1433 1432 1431 1429 1428 1428 1427 1427 1428 1427 1426 1425 1423 1423 1423 1422 1421 1420 1421 1422 1423 1424 1426 1426 1426 1426 1428 1429 1430 1433 1435 1436 1438 1439 1440 1443 1445 1448 1451 1453 1457 1461 1463 1465 1467 1469 1471
1430 1430 1431 1432 1430 1431 1430 1430 1432 1431 1429 1428 1428 1429 1429 1430 1429 1429 1430 1430 1430 1429 1429 1428 1427 1427 1427 1427 1427 1428 1429 1429 1430 1431 1432 1434 1435 1437 1438 1441 1444 1446 1448 1450 1452 1455 1457 1459 1462 1465 1466 1467 1468 1471
1428 1429 1429 1429 1429 1430 1430 1430 1429 1431 1430 1430 1431 1431 1431 1432 1433 1433 1432 1432 1432 1433 1434 1434 1434 1434 1433 1432 1433 1433 1433 1433 1433 1435 1437 1438 1440 1441 1443 1445 1446 1448 1451 1454 1454 1456 1458 1460 1462 1464 1466 1468 1470 1472
1427 1427 1427 1428 1429 1430 1429 1428 1427 1427 1429 1428 1431 1431 1432 1432 1434 1434 1435 1434 1434 1435 1435 1436 1436 1437 1438 1438 1438 1438 1438 1439 1439 1439 1440 1441 1443 1445 1447 1448 1449 1450 1452 1454 1455 1457 1459 1461 1463 1465 1467 1468 1470 1471
1427 1427 1428 1427 1428 1429 1429 1428 1427 1425 1423 1426 1426 1428 1429 1430 1433 1436 1436 1435 1436 1436 1436 1437 1438 1439 1440 1442 1442 1443 1443 1443 1444 1445 1446 1447 1448 1448 1448 1448 1449 1452 1453 1455 1455 1456 1458 1461 1462 1464 1465 1466 1468 1470